Погода в Михайловке

Россия / Томская область     56°42′33″N   86°48′29″E
темп.,
°C
ветер,
м/с
пор.,
м/с
влажн.,
%
обл.,
%
осадки,
мм/ч
давл.,
гПа
погр.,
м
6 марта, сб
сб601:00−5юз71591100 0.4 10121101
04:00−5юз81588100 0.3 1012970
07:00−5юз81588100 0.3 1013909
10:00−5юз91592100 0.4 1012926
13:00−4ююз101782100 1.0 10101082
16:00−3юз101979100 0.0 10081430
19:00−4юз101889100 0.6 10071131
22:00−5юз101884100 0.0 1006941
7 марта, вс
вс701:00−3юз81688100 0.1 10061060
04:00−5зюз6158172 0.3 1006833
07:00−8зюз6158635 0.3 1009557
10:00−9зюз714860 0.0 1011759
13:00−7зюз712819 0.0 1014946
16:00−6зюз711770 0.0 10161268
19:00−8юз5128641 0.1 1018329
22:00−10юз5129168 0.0 1020370
8 марта, пн
пн801:00−13юз479361 0.1 1021130
04:00−15ююз349276 0.0 102247
07:00−14ююв368888 0.0 1020103
10:00−10ююв6118795 0.0 1016333
13:00−2ю7138997 0.0 1011811
16:000ю81482100 0.0 10061051
19:00−1ююз91790100 0.1 1004983
22:00−2юз91688100 0.4 1006993
9 марта, вт
вт901:00−7з7148296 0.6 1011636
04:00−11зюз6139078 0.0 1014477
07:00−12зюз5129189 0.0 1017523
10:00−11зюз61289100 0.0 1020649
13:00−9юз6108598 0.0 1021670
16:00−7юз6108127 0.0 1021727
19:00−9ююз5128441 0.0 1019306
22:00−9ююз5138599 0.0 1018405
10 марта, ср
ср1001:00−9ююз51387100 0.0 1015388
04:00−8ююз4119393 0.0 1012299
07:00−7юз4129394 0.1 1012360
10:00−6зюз6138421 0.0 1013592
13:00−4зюз598544 0.0 1014718
16:00−4юз4787100 0.1 1014705
19:00−6ююз3391100 0.1 101382
22:00−7ю2391100 0.0 101237